Starlink 30251

operational
NORAD ID: 57532 Int'l Des: 2023-115 Owner: SPXS Country: US Constellation: starlink
LEOCIRCULAR

Starlink 30251について

説明を読み込み中...

リアルタイム位置

3D地球を読み込み中...

次回通過

高度履歴

Altitude vs Time

uPlot chart will show altitude changes over time

軌道要素

1 57532U 23115M 25306.43713987 .00000202 00000-0 30047-4 0 9994
2 57532 43.0045 336.0735 0001197 278.1557 81.9150 15.02530180123173
Epoch: Nov 2, 2025 • Age: 35 hours

現在のステータス

高度 571.6 km
速度 7.58 km/s
衛星直下点 -43.08°S, 119.05°W
打ち上げ日 Aug 8, 2023
運用期間 2.2 years
タイプ internet

技術仕様

分類 Payload
質量 730.00 kg
乾燥質量 700.00 kg
総質量 730.00 kg
長さ 0.30 m
直径 4.10 m
スパン 29.00 m
形状 Box + pan
製造者 SPXS
バスタイプ Starlink V2M
フェーズステータス In Orbit
所有者/国 SPXS/US

大規模コンステレーション

Loading constellations...